Theta_e
338 332 331 326 313 313 312 304 295 294 296 290 288 291 293 302 310 307 308 313 309 317 320 322 321 321 316 316 317 320 321 314 313 305 301 317 336 336 335 334 335 336 335 337 338 339 341 344 344 345 346 346 346 345 344 344 343 342 342 342 341 341 341 340 340 340 342 344 344 344 345 344 344 344 344 345 344 344 344 344 345 346 346 346 345 345 345 345 346 345 345 345 345 345 346 346 346
333 325 326 327 314 309 306 299 291 290 287 287 289 294 298 306 307 307 309 310 313 317 319 320 322 322 322 322 322 322 319 323 324 322 326 333 336 335 336 335 335 334 336 337 337 336 338 341 345 345 345 345 344 344 344 342 341 341 340 340 339 339 339 339 338 338 338 340 342 344 344 344 344 343 345 344 344 344 344 344 344 345 345 346 346 344 343 345 345 346 345 344 345 345 346 346 346
318 319 318 313 306 304 302 297 293 284 288 285 285 296 305 305 306 309 311 312 316 319 319 320 321 321 319 320 315 316 311 326 326 327 326 333 326 326 335 336 336 335 336 336 335 335 334 339 345 344 345 344 343 343 341 341 341 340 340 338 338 338 338 338 338 337 337 337 338 340 344 344 344 344 344 344 344 343 344 344 344 345 345 346 346 345 345 343 345 346 345 345 345 345 345 345 345
313 314 312 304 305 298 296 293 288 287 287 282 286 298 305 306 308 312 316 316 318 320 320 318 316 321 319 315 317 322 320 321 327 327 324 326 326 331 335 337 339 335 335 335 335 333 336 343 343 343 343 343 343 340 340 340 339 339 339 338 339 339 339 339 339 339 338 336 335 336 340 343 343 344 343 342 343 342 343 343 343 344 345 345 345 346 346 345 345 344 344 344 344 345 344 345 344
317 318 312 305 299 300 294 292 288 286 286 285 288 297 307 308 309 311 314 317 317 319 320 319 317 323 324 321 324 315 316 325 324 327 328 329 332 334 335 337 334 334 333 332 333 332 335 344 343 343 342 342 340 340 339 338 338 338 339 339 339 339 340 340 340 339 338 337 336 334 335 340 343 343 343 343 342 342 343 343 344 342 343 343 343 344 344 345 344 344 344 344 344 345 344 344 343
306 310 310 314 305 299 295 291 290 291 293 290 295 299 305 309 309 311 314 316 316 320 322 320 317 317 318 321 326 320 326 317 324 324 326 326 332 335 336 338 333 332 330 330 331 333 334 343 342 343 342 340 340 338 339 339 338 339 339 339 339 340 340 339 339 339 338 337 335 334 333 336 340 342 342 342 343 343 343 342 342 342 342 342 343 342 342 343 343 344 343 344 344 344 344 343 343
306 304 300 300 300 297 291 286 286 290 299 302 299 302 306 308 311 312 312 311 315 320 322 319 321 319 317 323 326 328 331 331 325 323 327 329 333 334 334 332 331 329 329 330 332 333 336 343 343 343 341 339 338 338 339 339 340 339 340 339 340 340 341 337 338 338 338 337 337 333 332 333 337 341 342 342 343 343 343 342 341 341 341 342 340 343 342 342 343 343 344 344 344 343 343 342 343
311 303 299 294 292 291 288 289 294 292 299 306 305 305 308 312 313 312 311 310 310 314 319 320 321 318 316 327 316 328 328 329 328 330 332 332 333 333 332 330 329 328 330 331 332 337 343 344 343 342 340 338 337 337 338 338 338 338 339 339 340 341 341 336 336 337 338 340 337 338 334 332 336 338 341 341 341 342 342 341 341 341 342 342 341 342 342 342 344 343 343 343 343 342 342 342 342
305 301 300 294 289 291 290 290 295 299 301 306 306 310 316 314 314 312 310 314 314 317 318 318 319 313 314 319 318 323 325 329 332 335 332 332 332 331 332 328 327 327 329 332 332 331 330 343 343 342 340 337 337 337 337 337 338 338 339 340 340 340 340 336 336 337 337 338 337 337 338 337 335 337 339 341 340 341 342 342 342 342 342 341 342 341 342 343 343 343 343 343 342 342 342 343 342
303 302 294 293 291 291 289 293 293 298 301 304 306 308 311 312 312 312 313 313 314 315 318 321 319 315 320 316 318 319 321 329 329 330 329 330 330 331 330 327 329 328 329 329 329 328 333 345 343 341 339 338 337 337 337 337 338 339 340 340 339 339 339 334 336 337 336 337 337 338 337 337 337 336 337 339 340 341 342 342 343 342 341 340 341 342 342 342 342 342 342 342 342 342 343 342 342
299 298 297 290 287 287 289 292 292 298 302 305 307 311 312 314 313 312 313 313 315 314 317 319 314 316 317 316 317 323 327 328 328 326 328 330 331 331 329 327 328 328 330 329 330 331 331 335 342 341 339 339 338 337 336 337 338 338 339 339 338 337 335 335 337 337 336 337 339 340 341 341 340 337 337 338 339 341 342 341 342 342 339 340 339 342 342 342 342 343 342 342 342 342 342 342 341
298 296 293 288 289 289 291 292 296 298 301 303 305 312 314 314 313 311 312 311 314 315 314 317 313 319 314 314 313 320 325 326 326 327 328 330 331 332 331 327 329 329 329 329 332 331 332 332 336 340 338 338 338 337 337 338 338 338 339 339 339 337 335 337 337 337 336 338 340 341 342 342 340 337 337 338 338 340 341 341 342 342 341 340 341 340 342 342 342 342 343 342 342 342 342 341 341
298 296 293 290 290 291 292 294 294 300 296 300 304 310 315 314 311 311 311 313 314 313 313 318 319 317 308 309 314 320 322 324 327 328 329 330 331 332 330 328 329 330 330 333 331 330 330 329 332 337 342 344 341 337 338 340 338 340 338 338 339 337 337 337 336 337 337 338 339 340 342 342 343 338 335 337 338 340 341 340 342 342 341 341 342 341 342 341 342 342 343 342 343 342 341 341 341
299 297 293 291 293 293 293 293 293 297 294 300 307 313 315 312 313 313 312 310 310 312 319 321 321 318 313 313 313 315 318 324 327 329 330 331 332 331 329 329 329 329 330 331 330 329 329 331 333 333 332 330 329 332 336 340 339 338 338 339 340 339 338 337 336 337 338 339 339 339 340 341 342 342 337 337 338 340 340 340 342 341 341 342 342 341 341 342 342 342 342 342 342 342 342 342 342
306 300 293 291 291 293 293 293 294 293 293 302 309 311 313 317 315 314 313 310 311 318 323 326 322 315 307 311 309 314 320 324 327 330 332 332 332 330 329 329 329 328 329 330 330 330 329 328 330 330 332 328 328 325 325 329 340 339 340 339 338 338 337 336 336 337 336 337 338 338 338 338 339 341 340 340 338 339 340 340 340 341 342 342 341 341 341 342 342 343 342 342 342 342 341 341 342
304 301 294 293 291 291 293 294 296 294 297 306 310 313 313 315 318 315 316 318 317 323 323 316 323 315 315 314 314 318 322 324 328 330 329 329 328 327 328 327 328 326 327 329 328 327 327 328 327 327 327 327 326 326 326 326 337 338 339 340 338 337 337 336 336 336 336 335 336 336 335 333 333 334 339 338 341 342 341 341 341 341 342 341 341 340 340 342 342 342 342 342 342 343 343 343 342
307 300 296 289 291 292 293 295 297 293 298 306 311 312 310 312 319 320 323 322 316 314 317 320 320 324 317 318 320 322 324 332 331 326 326 324 322 322 322 322 324 323 325 325 325 324 325 326 326 325 327 326 326 326 327 327 334 335 333 338 339 338 337 336 335 335 335 331 333 333 332 329 326 328 331 336 338 340 342 340 340 341 341 340 341 343 342 342 343 343 343 343 341 343 342 342 343
302 296 293 291 288 293 296 298 300 301 303 305 309 311 313 310 316 320 323 317 314 315 315 317 321 321 321 322 323 326 327 326 325 324 322 321 320 318 319 319 320 321 319 322 323 322 323 323 324 324 323 324 325 326 326 328 327 331 326 327 331 333 335 336 327 329 330 323 330 326 327 327 324 326 333 338 335 338 338 341 342 343 343 342 341 342 343 344 344 343 343 343 343 341 339 335 335
299 295 293 291 292 296 302 302 304 306 305 308 310 313 313 313 316 317 314 313 315 312 314 316 316 318 321 323 324 325 324 323 322 322 321 319 318 317 317 317 317 317 319 321 321 322 321 323 325 325 324 324 324 325 326 329 325 324 325 327 329 333 331 330 322 325 321 322 324 323 327 324 324 325 331 335 336 335 335 338 339 340 340 342 341 341 341 341 341 342 343 343 342 338 333 334 333
303 299 295 293 299 300 305 308 305 310 310 309 311 313 315 315 315 320 315 313 313 311 310 313 313 314 317 319 322 322 322 321 321 320 319 318 317 317 316 316 316 316 317 319 320 324 322 322 322 324 325 324 324 327 327 327 325 324 324 327 326 326 324 324 322 321 321 321 322 324 324 325 322 321 329 331 331 326 326 331 334 335 335 337 339 333 336 337 337 336 339 340 337 334 331 332 333
304 301 296 298 302 302 306 310 311 312 312 311 311 313 311 312 314 317 314 311 310 311 314 313 313 315 317 319 320 321 320 319 318 319 318 317 317 317 317 317 316 317 317 320 326 322 322 324 325 324 324 325 323 323 325 328 326 323 323 327 325 325 324 322 321 321 321 321 321 324 324 325 321 321 321 322 322 323 322 322 322 324 326 326 335 327 329 330 330 329 331 334 332 332 332 332 334
305 301 301 302 305 305 309 312 312 311 312 311 311 310 309 314 317 314 312 306 306 311 316 315 317 318 319 319 320 320 319 319 317 318 318 318 317 317 317 317 318 319 320 319 321 323 324 326 324 325 325 322 322 322 324 330 325 322 323 328 324 327 323 322 321 320 321 321 322 324 324 322 321 321 321 321 321 321 321 321 320 322 322 325 329 325 327 327 326 327 328 331 332 332 332 332 332
302 302 304 305 306 306 311 313 312 312 309 310 308 310 312 312 312 313 311 309 311 316 319 318 319 320 320 320 320 319 318 318 317 318 318 317 317 317 317 317 317 318 320 318 320 322 323 324 325 323 323 323 322 323 324 324 322 322 323 329 326 327 322 322 320 320 321 321 322 325 322 320 320 320 320 320 320 321 320 320 320 320 321 322 327 324 326 326 325 325 325 327 330 332 332 331 331
305 302 305 307 308 309 311 312 310 308 309 308 310 313 311 313 308 313 312 315 317 320 321 320 321 322 321 319 318 319 319 318 318 319 320 320 319 319 319 319 318 318 320 318 320 321 326 323 324 323 323 322 321 322 324 323 322 324 328 329 323 335 323 321 320 321 321 320 324 323 327 319 320 320 320 319 319 320 320 321 320 320 320 321 324 324 324 325 323 324 325 325 327 329 330 332 331
304 302 307 307 308 310 312 311 309 309 308 311 312 310 310 310 310 312 313 317 319 320 322 322 321 320 318 318 318 317 317 317 318 319 320 320 319 321 319 318 318 318 319 318 320 322 323 326 326 322 325 323 321 322 324 322 322 323 323 324 324 338 320 320 322 321 318 320 321 322 327 318 319 319 320 320 319 319 320 320 319 319 320 320 322 322 324 323 322 323 324 324 325 327 330 333 331
306 306 307 307 308 309 311 309 309 309 311 313 311 308 309 312 313 310 312 317 320 321 321 321 320 318 318 318 319 318 318 318 319 318 320 320 319 320 317 318 318 319 320 319 320 321 322 327 324 323 325 321 323 324 322 322 322 323 324 325 324 330 321 322 324 318 318 317 319 320 321 324 317 318 319 319 319 318 319 319 320 319 319 320 320 320 323 322 322 322 323 324 324 325 329 332 331
308 306 306 306 308 309 309 308 309 310 310 312 310 309 311 313 311 303 313 318 321 320 319 318 318 317 318 319 319 318 318 319 319 318 319 318 318 318 318 317 320 319 321 320 320 320 325 326 323 327 324 332 322 324 323 325 323 322 327 324 325 325 324 324 321 318 320 318 320 318 320 323 321 318 319 318 318 318 318 319 319 319 318 319 320 320 321 322 321 322 322 323 323 325 327 329 331
308 308 308 307 307 308 308 307 308 309 309 311 312 310 311 309 309 307 313 319 320 318 317 316 316 317 319 319 318 318 319 320 319 317 318 316 317 316 316 317 318 318 320 320 321 321 324 322 322 323 323 326 328 326 328 323 323 323 328 324 326 327 326 321 319 318 323 318 319 318 319 320 325 317 317 319 319 316 317 317 318 319 318 319 320 320 320 320 321 322 323 324 324 325 327 328 330
306 306 301 303 304 305 308 307 309 308 307 312 312 303 302 303 305 310 317 318 318 316 316 316 315 316 317 317 319 318 319 320 318 317 318 319 318 319 317 319 319 319 320 321 321 324 322 321 322 322 324 327 325 325 324 322 322 323 326 325 329 329 322 321 318 319 317 318 320 318 319 322 321 318 317 317 321 315 316 316 317 319 319 319 319 321 320 319 320 321 322 325 325 324 327 327 329
308 306 301 300 298 299 306 308 308 307 308 312 307 290 293 300 306 311 318 318 317 315 315 316 315 315 315 316 318 319 318 318 317 319 318 318 318 319 318 319 321 320 321 320 322 323 324 324 326 324 325 324 326 323 329 322 321 324 329 323 329 325 323 319 325 320 319 320 320 318 319 323 319 318 317 316 316 315 315 316 316 317 319 319 319 320 318 319 319 321 322 321 326 323 323 326 326
299 303 301 295 293 297 302 306 307 306 308 310 305 291 292 297 302 310 317 319 316 315 315 316 315 314 315 315 316 318 318 317 318 318 319 320 319 320 320 320 322 321 324 320 322 322 326 323 326 324 329 322 328 321 323 323 329 325 324 326 326 325 329 320 319 318 319 318 322 318 320 324 320 319 318 316 316 315 315 315 316 317 319 318 317 319 319 319 319 320 322 319 320 321 322 326 325
299 295 291 292 293 294 298 307 306 304 306 308 302 293 295 300 303 309 316 317 316 314 315 315 314 315 315 314 316 317 318 318 318 319 320 320 320 320 321 320 321 322 322 322 323 322 323 321 328 323 328 324 326 325 326 322 323 324 324 334 326 326 323 322 320 319 320 319 321 319 319 326 319 318 319 316 316 315 314 315 316 318 318 317 317 317 319 318 319 319 320 320 318 318 321 320 323
294 294 290 293 291 293 298 305 306 306 305 307 304 293 296 301 304 308 315 316 315 313 313 313 313 314 315 315 316 316 317 317 317 318 318 320 320 320 321 321 322 323 322 322 323 322 322 322 330 323 324 324 325 324 325 325 324 327 328 326 328 326 323 323 322 321 319 319 320 320 320 326 318 318 319 318 317 316 314 315 316 317 318 316 316 316 317 319 317 318 318 321 318 317 317 318 320
290 293 293 293 294 293 293 299 306 305 306 302 303 298 298 300 302 307 312 315 313 312 312 313 313 314 315 315 315 316 315 315 317 317 318 319 320 320 320 327 323 323 323 323 323 323 323 322 324 322 322 324 323 324 325 323 324 324 325 324 332 324 323 322 321 321 321 320 319 321 322 326 325 318 318 318 316 320 315 315 315 317 317 316 316 315 316 317 317 318 317 317 319 317 316 316 318
289 291 292 293 294 294 293 297 301 304 304 302 302 300 300 301 302 305 311 314 312 312 313 313 313 313 313 314 314 315 315 315 317 318 318 319 319 320 320 323 322 322 323 323 323 323 322 322 324 326 327 322 323 323 328 325 324 324 322 322 322 325 320 323 321 321 320 319 320 322 325 324 325 319 319 319 319 317 315 315 316 316 317 315 315 315 315 318 318 317 317 315 317 318 316 316 316
293 294 292 291 293 292 292 298 301 306 300 300 300 299 300 302 301 304 308 312 312 312 312 310 311 311 311 312 313 313 314 315 317 317 318 319 319 320 319 322 321 321 322 323 324 321 321 322 322 322 325 322 323 322 323 321 322 321 322 322 321 321 320 328 325 321 321 320 324 322 321 321 323 327 321 318 318 319 314 315 315 316 317 315 315 315 315 315 315 315 317 319 315 317 318 317 317
298 296 294 293 293 293 295 296 300 306 301 299 300 301 301 301 300 304 308 310 311 311 310 309 309 309 310 310 311 312 312 315 316 317 317 319 319 320 320 321 321 322 321 322 322 321 321 323 323 322 323 322 324 323 321 321 321 321 319 318 318 317 322 329 322 321 322 323 324 322 323 321 320 320 325 318 316 318 316 314 314 315 316 317 316 315 315 316 318 317 316 318 317 314 315 317 317
297 295 295 294 294 292 296 298 303 306 302 298 299 299 300 301 300 302 307 308 309 310 310 309 308 307 308 309 310 311 313 314 315 315 316 317 318 319 320 321 325 321 321 321 322 322 321 320 323 323 321 322 321 322 324 323 319 321 320 320 319 318 319 319 321 322 326 326 324 324 324 320 319 321 327 322 320 317 315 315 314 314 314 317 318 316 317 319 314 315 315 315 314 315 314 316 316
295 297 293 294 292 295 299 299 303 304 303 295 297 298 299 300 300 301 305 307 309 311 311 311 309 307 307 307 308 309 309 310 313 314 315 316 318 319 320 321 321 322 323 323 322 322 320 320 321 321 320 321 321 322 320 321 320 323 320 321 321 321 321 322 322 324 326 324 322 323 325 321 318 320 319 326 320 318 315 315 315 313 314 318 313 313 313 314 313 313 314 314 313 314 316 317 316
293 292 293 292 293 296 291 297 300 302 300 296 297 298 296 297 299 301 304 307 308 308 309 309 308 307 307 308 309 309 309 309 312 313 314 315 317 318 318 318 320 320 322 321 321 322 321 323 320 319 321 321 321 322 329 321 324 322 322 323 322 322 324 332 322 321 321 321 324 323 323 322 320 319 320 320 319 316 317 316 315 314 314 316 313 313 312 313 314 314 314 316 313 312 310 313 318
294 294 291 292 294 294 293 294 298 299 301 299 297 291 291 293 299 298 300 304 306 306 307 306 305 307 308 309 310 310 310 310 311 312 313 314 316 318 319 320 319 320 320 322 322 322 324 323 323 322 321 322 322 327 328 321 324 323 320 322 321 321 320 316 318 318 319 325 326 322 323 323 322 321 320 319 327 317 316 317 315 316 314 315 315 313 313 312 312 313 313 314 312 311 311 311 315
292 294 298 296 295 296 296 297 298 295 293 296 297 286 285 290 293 297 297 299 302 305 304 304 305 305 308 308 310 310 313 312 313 313 314 315 317 317 317 319 318 318 320 322 323 323 324 323 322 321 321 321 322 322 325 325 328 323 321 320 318 314 317 316 318 319 320 320 320 322 324 324 323 324 321 318 322 325 317 317 316 316 316 315 317 313 312 314 314 315 314 313 313 312 312 312 312
293 294 299 299 297 297 296 296 294 288 287 294 299 291 282 287 294 296 296 298 300 301 301 304 303 305 307 309 310 310 312 312 312 313 313 314 314 315 316 317 319 320 321 321 321 322 322 322 322 322 323 323 322 323 324 327 321 321 322 321 319 318 317 315 315 316 318 319 320 320 322 322 324 323 323 320 319 325 316 317 316 316 317 315 324 313 314 313 313 316 318 314 314 316 313 311 311
291 296 299 299 298 297 297 297 294 287 294 299 295 289 287 284 288 294 296 297 298 298 300 301 303 305 307 308 310 310 311 312 313 312 313 314 315 316 317 319 319 321 322 322 321 321 322 323 322 323 323 326 323 323 323 325 322 319 320 320 321 318 318 320 320 320 322 324 323 321 321 322 322 324 322 321 319 322 322 316 316 317 316 311 324 316 314 314 314 314 317 312 315 314 312 313 312
293 296 300 297 298 297 297 296 291 292 292 287 288 295 290 283 287 295 297 297 296 297 299 300 302 305 307 308 310 311 312 313 314 313 313 314 315 316 318 318 320 321 321 322 323 323 323 322 323 322 322 323 324 324 325 324 325 321 321 320 320 323 321 321 323 325 326 324 323 321 320 321 322 322 321 323 321 319 328 321 316 316 316 315 328 320 315 315 314 314 314 314 313 312 314 312 312
296 300 301 300 299 298 296 294 293 290 288 284 290 291 288 284 285 291 294 296 295 297 300 301 302 305 307 308 309 310 311 312 313 314 314 315 316 317 318 319 320 321 321 324 322 322 321 321 323 323 322 322 322 323 326 323 324 326 321 321 321 322 321 319 318 319 319 318 321 321 320 321 321 322 320 322 323 320 322 324 319 316 317 316 327 320 315 315 315 315 314 313 317 313 314 315 314
300 301 299 296 294 292 292 290 290 287 280 284 290 292 290 284 285 293 293 295 297 299 299 300 303 304 307 308 309 310 311 311 312 312 313 315 316 316 317 318 319 319 320 322 322 323 322 322 323 323 323 323 324 323 324 324 322 324 323 322 322 322 322 320 321 321 318 318 319 321 320 320 320 321 321 322 319 322 320 325 322 317 317 323 327 322 318 316 316 315 315 315 317 315 314 314 317
299 293 293 295 292 289 288 284 286 284 279 284 288 292 290 285 283 289 295 297 298 300 300 301 302 304 306 308 309 310 311 311 312 313 313 313 315 315 316 317 318 319 320 320 321 322 323 322 322 322 322 323 322 323 323 324 323 323 324 323 322 322 321 323 321 321 319 319 318 319 318 318 321 320 321 321 322 321 324 322 324 322 321 320 319 320 318 316 316 316 315 317 317 315 315 321 314
297 296 295 288 284 280 284 281 285 282 280 290 290 291 290 288 290 293 296 299 298 301 303 303 303 304 305 308 309 310 311 312 312 312 313 313 315 316 316 316 316 318 321 321 321 322 321 322 322 322 323 322 323 323 324 323 323 323 324 324 324 324 322 322 322 320 320 319 319 319 318 319 319 320 321 321 323 321 323 324 321 321 319 320 321 317 317 317 316 316 316 316 316 316 316 315 316
295 294 288 284 281 275 276 275 278 280 286 289 291 291 288 288 292 295 296 299 301 302 303 304 305 305 306 308 309 310 311 312 313 313 314 314 315 316 317 317 318 319 320 321 320 322 322 323 321 322 323 322 322 323 323 323 323 324 324 324 324 325 325 323 322 322 322 320 320 321 320 320 320 321 321 321 323 323 324 324 325 322 320 319 321 319 318 318 317 316 317 317 316 316 314 314 315
294 293 295 291 282 279 277 279 280 278 281 285 290 289 284 288 291 298 297 299 300 301 303 304 305 306 306 307 308 310 311 311 313 313 315 315 316 316 317 317 318 319 320 320 319 321 320 321 321 323 323 322 322 323 322 323 324 323 324 324 324 323 324 324 323 323 322 322 321 321 321 320 320 322 322 323 325 324 324 323 323 322 321 320 319 320 321 320 319 319 319 317 317 316 314 315 314
290 291 293 290 289 284 284 281 281 281 285 284 289 286 287 289 296 299 297 298 300 302 302 304 304 305 306 308 309 310 312 313 314 314 314 315 315 316 316 317 318 319 320 319 320 320 320 321 321 322 323 324 322 324 323 324 324 324 323 324 324 325 328 328 327 327 327 324 324 323 323 322 322 323 323 324 324 325 324 323 324 324 323 321 321 320 319 319 318 317 317 317 317 320 316 315 315
293 294 291 291 292 291 281 281 284 285 281 283 280 288 288 292 296 297 296 297 297 299 300 302 302 305 305 307 309 310 312 313 314 315 315 314 313 314 317 317 318 319 318 319 320 321 322 322 321 320 321 321 321 324 324 323 323 322 324 323 323 323 324 325 326 325 325 324 324 323 323 323 323 323 324 325 325 325 324 324 323 323 323 323 322 322 321 319 318 317 317 316 316 317 318 317 317
293 289 292 293 295 292 287 283 278 276 279 278 284 287 284 286 285 294 296 296 298 298 299 301 302 304 305 306 308 310 312 314 315 315 315 316 316 317 316 317 319 319 320 319 321 321 322 322 322 322 322 321 322 322 324 323 323 323 323 322 322 323 324 325 324 325 325 324 323 323 323 323 324 325 326 326 327 326 325 329 326 325 324 323 323 323 323 322 320 318 317 317 317 317 317 317 318
293 290 296 293 286 289 285 283 278 278 278 275 281 285 283 285 287 291 294 295 296 297 298 300 302 304 305 306 308 309 311 313 314 314 315 315 315 316 316 317 318 319 321 321 321 321 321 321 321 322 322 322 323 323 323 324 323 324 324 324 323 323 323 324 324 325 324 323 324 324 323 324 324 325 326 326 326 325 326 325 324 325 325 324 323 323 323 323 322 320 320 319 318 317 316 316 317
297 296 295 294 288 282 285 283 283 281 276 277 280 283 285 289 289 294 296 296 297 296 297 299 301 304 305 307 309 310 312 313 314 314 315 316 316 317 317 317 317 318 319 320 320 320 321 322 322 322 322 321 321 321 323 324 324 323 324 323 323 324 324 324 324 323 322 323 324 324 324 324 324 326 325 325 324 325 325 325 325 325 325 325 324 324 324 323 322 321 321 320 320 318 317 316 317
293 290 290 293 290 290 290 288 288 285 275 274 276 278 282 288 292 295 298 297 298 299 299 299 301 303 305 307 309 311 313 313 314 315 316 316 316 316 316 317 319 319 320 320 319 319 321 321 321 322 322 321 320 321 321 323 323 323 323 323 324 323 323 323 323 323 323 322 323 325 324 324 324 324 324 324 324 325 325 325 325 325 325 325 325 325 325 324 323 323 323 321 321 319 317 317 318
290 291 287 291 286 287 285 283 287 284 284 277 278 278 282 289 295 297 298 298 299 299 300 300 301 303 305 308 310 312 313 313 314 315 316 317 316 316 316 316 316 317 318 318 318 317 318 318 321 320 320 320 320 320 321 322 322 323 322 323 324 323 323 322 322 321 322 322 322 322 323 325 323 324 324 324 324 324 324 323 323 324 324 324 324 324 324 324 323 323 323 323 322 321 319 319 318
Wind_Speed
2 2 1 1 2 2 1 5 3 2 2 0 1 1 1 2 0 4 5 4 1 2 2 6 3 2 1 3 8 7 3 3 2 4 2 1 2 5 4 4 3 4 4 4 3 4 3 6 8 8 9 9 10 10 10 10 10 10 9 9 9 9 9 9 9 9 10 9 9 8 7 7 6 6 7 6 7 7 7 7 7 8 7 6 6 7 6 5 5 4 3 3 3 2 3 3 4
2 2 1 1 0 1 1 1 3 1 5 3 1 1 2 2 3 1 2 2 0 0 3 3 3 7 8 8 8 5 6 5 0 1 2 2 4 4 3 4 5 4 3 3 4 4 3 3 8 9 9 9 10 9 9 9 9 9 9 9 8 8 8 8 8 8 8 8 9 9 8 7 6 6 6 5 6 6 7 7 7 7 7 7 6 5 4 7 5 5 5 4 3 3 3 4 5
1 3 1 1 2 2 2 4 0 1 4 0 2 1 2 3 2 1 2 1 3 4 5 2 1 3 4 1 6 3 2 3 4 3 2 2 2 1 3 4 4 4 5 4 4 3 3 4 8 9 9 9 9 9 8 8 8 8 9 9 9 10 10 9 9 9 9 8 8 9 8 8 7 5 5 5 4 5 6 7 7 7 8 8 7 7 7 6 6 6 5 4 3 3 4 6 5
2 0 0 2 0 3 1 3 4 6 4 4 1 2 1 1 2 1 1 2 3 2 1 3 4 3 1 9 4 2 4 1 2 2 2 1 0 2 2 4 5 4 5 4 3 3 3 5 8 8 8 9 9 8 8 8 8 9 9 9 10 10 10 10 10 10 9 8 8 7 7 7 6 5 4 3 3 4 5 6 6 7 7 8 8 7 6 6 6 5 4 4 4 4 5 6 4
1 1 2 1 2 1 3 1 4 2 3 3 2 3 0 0 2 2 1 2 3 3 3 3 2 3 3 6 3 1 0 1 2 2 1 1 1 3 4 4 5 5 4 4 3 3 3 7 7 7 8 8 7 8 8 8 9 9 9 9 9 9 10 10 10 9 9 9 8 6 6 6 5 4 3 3 3 3 3 6 7 6 7 7 8 8 7 6 5 4 3 4 5 6 6 5 3
2 0 1 1 1 3 5 2 3 3 1 2 1 1 2 3 1 1 4 2 3 3 4 5 2 2 4 4 3 2 3 1 2 2 1 1 2 4 4 4 4 4 3 2 2 3 2 6 6 7 7 7 7 8 9 10 9 9 9 9 9 9 9 9 9 9 8 8 8 6 4 4 5 5 4 3 2 3 4 5 6 7 6 7 8 7 7 6 5 4 4 5 5 5 5 3 4
0 2 3 3 2 4 4 4 3 3 1 3 2 2 5 2 1 2 2 1 4 6 3 3 2 1 3 2 2 2 2 2 0 1 1 2 4 5 4 4 4 3 2 2 2 2 2 5 5 6 6 6 7 8 10 10 9 9 9 9 9 9 10 9 7 7 8 8 6 6 4 3 4 5 5 5 4 3 3 4 6 5 6 6 6 5 5 5 5 5 5 6 6 4 4 3 4
0 0 1 2 1 3 3 1 1 2 1 4 2 2 2 2 0 1 0 2 2 2 1 1 4 4 1 2 1 2 6 3 2 0 5 4 4 4 4 3 3 2 1 1 2 3 2 5 4 5 5 5 6 8 9 9 9 9 9 10 10 11 11 10 9 7 7 9 6 4 3 3 4 4 4 4 4 4 3 2 3 2 6 6 6 6 7 5 5 5 6 6 4 3 3 3 4
3 3 0 5 4 3 3 1 0 2 2 0 2 3 3 2 1 1 2 1 2 1 1 1 2 5 0 3 3 3 2 4 3 5 5 5 4 2 3 2 2 0 0 1 2 2 2 2 4 5 4 4 5 6 7 9 9 9 10 10 11 11 11 9 10 9 8 7 8 5 4 4 4 3 4 4 3 4 4 3 4 7 7 6 5 5 4 5 5 5 5 5 3 3 3 4 6
0 1 1 2 3 4 1 1 2 2 2 1 2 2 1 2 0 1 3 3 2 2 0 3 2 5 5 4 2 2 2 5 1 5 4 4 2 2 1 1 1 2 1 1 1 1 3 3 4 4 2 2 3 5 7 8 9 9 10 11 11 11 9 9 10 9 8 9 9 7 6 6 4 3 2 3 3 4 4 4 6 8 6 8 4 4 4 4 4 5 5 4 3 3 3 5 5
1 4 2 4 5 2 2 2 2 2 2 3 2 1 2 2 1 1 0 2 1 2 4 5 4 6 7 3 1 2 2 2 4 3 1 1 1 1 1 1 2 2 3 2 1 1 2 1 4 3 2 2 4 5 6 7 8 9 10 10 10 9 9 11 10 9 8 9 8 8 6 5 5 2 3 3 3 4 5 5 6 5 2 0 4 3 3 4 4 5 4 4 3 3 3 4 4
1 2 2 4 2 2 1 3 1 3 4 2 1 0 1 2 0 1 1 3 1 1 2 2 3 4 7 3 1 1 4 1 1 0 1 1 0 1 1 2 1 1 1 2 1 0 2 3 2 2 3 4 5 6 7 8 9 10 10 9 9 9 10 11 11 10 10 10 9 9 7 6 5 1 3 3 3 3 4 4 5 5 2 2 3 3 4 4 5 5 5 5 5 3 3 3 3
2 2 5 5 2 1 2 1 1 1 2 3 2 1 2 2 2 3 2 1 2 1 2 3 3 2 3 2 1 2 0 1 1 0 0 1 1 1 0 1 1 0 2 2 0 1 2 2 2 3 5 7 7 9 9 9 9 10 7 7 9 10 11 11 12 12 11 11 10 10 8 9 10 5 1 2 3 4 5 4 5 5 5 5 5 5 5 5 6 5 5 6 6 6 3 3 2
2 3 3 1 1 3 5 2 0 1 2 2 1 1 1 1 1 3 4 3 1 1 1 3 2 2 3 2 0 1 3 2 1 1 0 1 0 0 1 1 1 1 1 1 0 1 1 2 3 3 3 3 4 6 7 9 11 8 8 10 11 11 12 12 12 13 13 13 12 11 11 11 11 10 5 4 3 5 5 5 5 5 4 5 6 6 5 5 6 6 7 6 6 5 4 3 5
0 2 4 3 1 1 2 3 5 3 2 2 2 3 0 1 3 3 2 3 1 1 2 2 1 2 3 6 3 5 4 3 2 1 0 0 0 1 0 0 0 0 0 0 0 0 1 2 2 3 3 3 4 3 3 6 9 11 12 12 11 11 12 12 13 14 14 14 13 13 12 11 11 10 9 8 6 6 6 7 6 6 6 6 5 5 5 4 5 5 6 6 6 6 5 6 5
4 5 4 2 1 3 2 1 1 3 1 2 2 3 4 2 1 3 2 1 2 2 2 1 2 1 1 4 2 5 4 3 2 1 1 0 0 0 1 1 0 0 0 0 0 1 2 2 2 2 2 3 2 3 4 5 6 10 11 11 11 11 11 12 13 13 13 13 13 13 13 9 8 7 11 7 8 7 5 5 6 6 6 6 7 6 6 4 4 6 6 6 7 8 9 6 5
1 3 1 3 1 2 2 2 4 2 1 2 1 3 1 1 0 1 1 3 6 1 6 5 2 2 2 2 2 6 3 3 5 3 2 2 2 0 1 1 0 0 0 0 0 1 2 2 2 2 3 2 2 3 4 3 4 8 7 9 10 11 10 11 12 11 10 10 11 11 10 7 6 5 6 5 7 6 9 8 8 8 8 8 9 9 8 7 6 6 7 7 7 10 9 7 7
1 1 4 0 2 4 4 5 6 1 5 3 4 2 6 3 0 2 3 8 2 6 4 6 4 3 1 2 4 7 5 5 4 5 3 3 2 2 1 1 1 3 1 1 1 1 1 1 1 1 2 2 2 3 2 3 4 6 5 5 5 6 7 7 6 5 7 6 9 8 6 5 5 5 5 5 5 6 8 12 11 11 11 11 12 11 11 10 9 8 8 8 9 10 9 4 5
2 2 1 4 4 3 4 3 4 2 2 4 3 2 3 1 2 0 4 1 4 7 3 3 2 2 6 7 7 7 5 5 4 4 5 5 4 4 4 2 1 0 0 0 0 2 1 0 1 0 1 1 2 3 3 3 4 4 4 5 4 6 5 4 4 5 5 6 6 6 5 5 5 6 6 7 6 10 9 12 12 12 12 13 12 11 11 11 10 9 9 9 9 9 4 3 4
0 2 1 3 5 2 3 2 4 1 8 6 5 1 5 1 0 0 3 4 2 8 7 2 2 5 6 5 7 5 5 3 3 4 4 4 4 4 4 3 2 2 2 1 1 1 1 2 1 0 0 1 2 3 4 4 4 4 4 4 5 5 5 4 4 4 5 5 6 5 5 4 5 5 7 11 10 6 6 10 12 12 12 12 13 7 10 10 11 10 9 8 5 3 4 4 4
1 2 2 2 3 3 0 2 2 3 6 7 6 3 4 0 1 1 5 5 1 2 3 3 8 8 7 6 5 4 4 4 2 3 4 4 3 2 3 2 2 2 2 1 0 1 1 2 0 1 1 1 1 4 3 4 4 5 5 5 4 5 5 5 5 5 5 6 6 5 5 4 5 5 5 5 6 5 5 6 6 6 5 7 9 6 6 6 6 6 6 5 4 4 5 4 4
3 3 2 2 2 2 0 2 3 4 3 8 6 7 4 2 2 3 4 3 4 4 3 2 6 10 10 7 5 4 4 4 3 4 5 5 4 4 2 1 1 0 1 2 1 0 1 0 0 0 1 1 2 3 3 3 4 5 5 5 5 5 5 5 4 5 5 6 5 5 5 5 5 5 5 6 5 5 6 5 5 5 6 6 6 5 5 6 6 5 5 5 4 3 5 5 5
0 2 1 3 2 3 2 2 2 7 4 7 5 3 3 2 2 1 2 1 1 2 3 6 5 5 5 4 5 4 4 4 4 4 4 4 4 3 4 3 3 2 2 2 1 0 1 0 0 1 0 0 2 3 3 4 4 3 4 5 5 5 5 4 5 5 5 4 5 5 6 5 5 5 6 6 6 5 5 5 5 5 6 5 5 5 5 5 5 5 5 5 4 4 5 4 4
1 1 1 0 1 3 2 3 4 4 9 4 2 3 4 6 4 1 1 2 1 3 5 7 6 5 5 5 4 5 5 5 6 5 6 7 6 7 6 5 3 1 2 2 1 1 1 2 0 0 0 1 2 3 3 4 4 4 4 4 4 4 4 4 5 5 4 5 4 5 4 4 5 5 5 6 5 5 5 5 4 6 5 5 4 4 5 5 5 5 5 6 6 4 4 4 4
0 1 0 0 3 2 4 4 5 5 4 3 5 5 4 3 4 2 1 0 4 5 7 7 6 5 4 4 4 4 4 4 4 6 3 4 3 1 1 2 3 3 3 3 2 2 2 1 1 1 0 0 1 2 3 3 4 4 5 5 5 4 4 4 4 4 5 5 4 4 4 5 5 5 5 5 5 5 5 5 5 5 5 5 5 5 5 5 5 5 5 5 5 4 4 4 4
1 1 2 2 3 4 4 6 3 4 2 4 7 5 3 4 5 4 1 1 3 6 7 6 6 5 5 6 5 5 5 7 6 4 7 4 3 3 3 3 3 4 4 3 3 2 2 1 2 2 0 0 1 2 2 4 4 5 4 4 4 3 4 4 4 5 5 5 5 5 4 3 4 4 4 5 5 6 5 5 5 5 5 5 5 5 5 4 4 5 5 5 5 5 5 5 4
2 3 3 4 3 5 2 4 0 0 2 4 6 5 4 2 2 1 0 3 4 7 6 4 6 6 5 5 4 4 5 6 7 3 1 1 3 5 3 3 4 4 3 3 3 2 2 2 2 1 0 0 0 1 2 3 3 4 4 4 4 4 4 4 4 4 5 5 4 4 4 3 3 4 4 5 5 5 5 5 5 5 6 6 5 5 4 4 4 4 5 5 4 4 4 4 4
6 9 8 6 5 5 3 4 1 1 1 3 7 6 1 2 2 5 4 4 5 9 6 4 4 4 4 4 3 3 3 4 2 2 5 4 5 5 4 6 5 4 5 4 3 2 3 3 2 1 1 0 0 1 2 3 3 3 3 4 4 4 3 3 3 3 4 4 3 4 3 4 3 4 4 5 5 5 5 5 5 6 5 5 5 5 5 5 4 4 4 4 4 4 4 5 4
3 4 5 1 3 4 0 3 2 0 0 5 5 5 3 3 3 3 4 4 5 7 6 5 4 4 4 3 3 3 4 3 2 3 5 5 4 3 6 5 6 6 2 4 3 3 4 3 2 2 0 1 0 1 1 2 2 3 4 4 4 4 3 3 2 2 3 3 3 3 4 3 4 4 4 4 4 5 5 6 6 6 5 5 5 5 5 6 5 5 6 4 5 5 6 6 4
1 6 4 4 4 3 1 0 1 3 0 3 2 1 5 1 1 1 4 5 4 5 5 4 4 4 4 3 3 3 3 3 3 5 3 3 3 4 5 4 3 4 4 3 3 4 2 2 1 1 0 1 1 0 0 2 2 2 2 2 3 4 3 3 3 2 2 3 4 4 4 3 4 4 4 4 5 5 6 6 6 6 6 5 5 6 6 6 6 6 6 5 6 6 6 5 5
3 1 5 1 2 0 1 1 2 3 1 3 2 3 2 3 2 3 4 6 8 7 6 4 4 4 3 3 3 4 5 4 4 4 3 3 3 3 2 1 3 3 3 3 5 5 3 2 2 1 1 1 1 2 2 2 1 2 4 3 2 4 4 3 3 3 3 4 4 4 4 3 4 4 4 4 5 5 5 6 6 5 5 5 6 6 5 5 6 6 6 6 5 6 5 4 4
2 2 2 3 1 1 4 1 5 3 1 1 2 3 2 4 4 3 5 6 5 6 5 4 4 4 4 4 4 4 5 3 4 3 3 3 3 3 3 3 3 4 5 5 3 3 3 3 1 2 1 1 2 1 2 2 3 2 2 3 2 2 4 4 4 4 3 4 3 4 4 3 3 4 4 4 5 5 5 5 5 5 6 5 6 6 6 7 5 5 6 5 6 6 5 6 4
4 3 0 0 1 1 1 2 3 6 2 1 1 1 1 1 4 3 5 7 6 5 5 4 5 4 4 4 4 4 4 5 4 4 3 3 3 3 3 4 5 5 4 5 5 4 3 2 2 3 3 3 2 2 2 3 4 5 4 4 4 3 4 4 4 3 4 4 4 4 3 2 4 3 4 4 4 5 5 5 5 5 5 5 6 6 6 5 5 5 6 5 5 5 6 6 5
2 2 1 2 1 0 1 4 0 2 5 1 1 1 3 2 4 3 4 7 6 5 6 6 5 5 5 4 4 4 4 4 6 5 4 3 3 3 3 4 4 4 4 5 6 7 5 4 3 3 3 1 1 1 2 3 3 3 4 4 3 4 3 4 3 4 3 4 4 3 2 1 2 3 4 4 4 3 4 4 4 6 5 5 6 6 5 4 5 5 6 6 6 6 6 6 5
1 0 0 1 0 3 2 3 3 4 1 3 1 2 7 6 3 3 6 6 7 8 8 7 7 6 5 5 5 5 5 5 9 5 4 3 3 3 3 3 4 4 4 4 4 3 3 3 1 2 1 2 0 1 1 2 3 4 2 3 4 3 4 2 3 3 3 3 3 2 1 2 2 3 3 5 5 4 5 5 5 5 5 5 6 6 6 6 5 5 6 5 5 6 5 4 2
3 7 4 2 2 3 2 5 2 10 4 3 3 4 6 6 4 3 3 5 8 9 4 4 5 5 5 5 5 5 6 8 7 3 3 3 3 4 3 3 3 3 3 4 4 3 3 1 1 1 1 0 1 2 1 2 2 3 4 5 5 4 4 3 2 3 2 3 3 2 2 2 2 2 3 4 5 4 5 4 4 5 5 5 6 7 7 6 6 6 7 6 6 5 6 6 4
4 4 4 3 2 3 2 3 3 6 4 4 5 6 4 6 4 5 6 4 5 5 5 6 5 5 5 6 6 7 6 10 2 4 4 4 3 3 3 4 4 3 3 3 4 3 4 4 3 4 2 0 1 0 1 1 1 3 1 2 2 3 3 2 3 3 3 3 3 3 2 2 1 2 2 5 5 4 4 3 5 5 5 5 5 5 5 6 5 4 4 5 7 8 8 7 6
3 5 3 1 3 2 2 2 4 7 6 3 3 3 7 9 4 4 1 3 9 9 8 7 7 6 5 6 8 8 9 1 2 2 2 2 3 3 4 4 5 5 2 3 4 5 4 2 4 4 1 1 1 1 1 1 1 0 0 2 1 3 3 3 3 3 2 3 3 2 1 1 1 1 2 3 3 4 4 4 5 5 5 5 3 4 5 5 6 6 4 5 5 6 6 7 7
2 2 2 2 3 3 2 1 5 5 2 3 3 4 9 6 4 4 6 9 8 9 9 10 8 6 6 6 8 8 5 5 2 3 3 3 4 4 4 4 4 5 6 6 4 3 3 3 4 2 2 2 2 2 2 1 1 1 1 1 0 2 1 1 2 4 1 0 2 3 1 1 1 1 3 2 3 3 2 3 3 4 5 5 6 7 6 7 6 6 6 4 3 3 3 4 7
4 3 1 3 2 3 1 1 3 4 3 1 5 6 6 4 4 4 6 8 6 4 5 5 5 7 8 9 9 7 7 5 6 4 4 3 4 4 3 4 4 3 3 3 3 4 3 3 3 3 3 3 2 2 2 1 1 1 1 1 1 0 1 2 3 3 3 2 2 4 2 0 1 1 2 2 2 3 1 1 2 4 4 4 4 5 6 6 6 6 6 5 3 6 5 6 5
0 4 3 1 1 2 4 3 3 1 1 4 5 2 5 2 1 3 3 3 4 4 3 4 4 5 4 3 4 5 7 6 5 3 2 4 4 5 6 4 3 4 4 4 4 5 4 6 5 5 4 4 2 1 0 2 2 1 1 1 2 2 1 4 4 4 4 2 1 2 2 3 1 2 2 1 1 2 1 1 1 2 3 4 3 5 4 3 4 4 5 6 7 2 5 4 5
1 4 9 7 3 4 2 5 7 3 3 3 5 1 3 3 4 7 5 1 5 4 5 6 5 4 3 5 7 3 3 2 4 5 6 7 6 4 2 3 4 3 4 4 5 5 4 5 3 3 3 2 3 2 1 2 1 1 1 2 4 3 4 5 3 3 4 4 3 2 4 3 4 2 2 1 1 1 1 1 1 2 3 4 3 3 3 4 6 5 4 4 6 5 4 6 6
1 6 9 8 5 6 7 7 6 2 3 3 1 5 2 4 3 4 1 3 7 2 5 7 4 4 5 6 6 5 5 3 1 2 2 4 3 3 2 3 4 4 5 3 3 3 3 3 4 4 4 4 2 2 2 2 2 1 1 1 1 1 1 4 3 3 4 5 3 2 2 3 3 4 3 2 2 1 0 1 1 2 2 3 1 3 4 4 3 3 2 5 4 3 5 6 6
3 5 6 6 8 7 7 8 5 2 1 1 4 3 1 3 4 2 3 2 4 4 6 6 5 4 6 6 6 5 5 4 5 4 4 4 5 6 7 7 5 7 3 3 3 3 4 5 5 5 4 3 2 2 3 3 3 2 1 1 1 2 2 4 5 4 2 2 3 4 0 1 3 3 3 2 2 2 1 0 1 1 2 2 2 3 3 4 4 2 2 3 3 4 4 5 4
4 2 8 5 6 4 5 6 3 1 2 2 2 1 0 3 4 3 1 2 3 7 7 7 6 5 5 6 7 7 6 5 5 5 5 6 6 6 4 5 5 3 3 5 5 5 4 3 3 3 3 3 2 3 3 3 2 4 3 2 2 2 2 4 4 3 2 2 4 4 4 3 2 3 3 3 1 3 2 2 2 2 2 4 1 3 2 3 3 4 5 5 4 3 3 2 4
3 6 11 9 9 6 5 4 4 1 2 3 3 1 2 6 6 3 3 1 5 8 10 9 7 6 5 6 6 5 3 3 3 4 4 5 5 5 5 1 2 4 3 3 2 3 3 3 3 3 3 3 2 3 3 3 3 2 2 2 3 5 2 3 2 4 3 2 3 4 4 5 4 3 3 2 3 2 4 2 3 3 4 4 2 3 3 3 4 4 3 3 2 3 3 1 3
6 8 9 8 9 4 4 6 2 3 2 6 5 3 3 2 4 6 4 6 8 5 3 2 3 4 5 5 6 6 5 4 4 4 3 4 2 1 2 4 3 2 3 3 3 3 3 3 3 4 5 2 2 3 3 3 3 3 3 3 3 4 4 2 4 5 4 3 3 4 4 5 4 4 4 3 2 2 3 3 3 4 3 3 3 3 4 4 4 3 3 3 3 3 2 3 3
5 3 4 8 4 6 3 3 4 2 4 6 3 5 3 4 4 5 8 3 3 8 8 7 6 8 8 7 7 6 5 5 4 4 3 3 2 2 3 3 3 3 3 3 3 3 3 3 3 4 3 3 2 2 2 3 3 4 3 3 4 4 3 3 3 3 3 3 3 4 4 4 4 4 3 4 4 3 3 3 3 3 4 4 5 4 4 4 4 3 3 3 3 2 1 1 2
6 8 8 7 1 4 1 3 1 4 4 0 1 5 3 5 9 5 4 9 6 7 8 10 10 9 8 7 7 6 5 4 5 4 4 4 5 6 5 4 3 3 5 4 4 4 3 3 4 4 5 4 3 2 4 3 3 4 4 4 4 3 3 4 3 3 3 2 3 3 4 4 4 4 4 4 5 4 4 4 4 4 5 5 5 4 4 4 4 4 4 4 4 5 4 4 3
7 8 6 6 2 1 0 2 1 5 5 3 2 2 1 4 7 4 7 7 6 7 8 6 10 11 10 10 7 6 5 6 5 5 5 6 6 6 6 5 5 5 4 4 4 4 4 4 4 4 6 3 2 2 3 3 4 4 4 4 5 4 4 3 4 3 3 3 2 3 3 3 4 4 4 5 5 3 3 5 4 5 5 5 4 5 5 4 4 5 4 5 5 5 3 5 5
4 1 10 8 8 4 2 3 3 4 4 3 2 2 4 1 3 1 5 6 4 5 3 2 4 3 2 2 4 4 4 5 5 5 6 7 7 7 7 6 5 5 5 4 4 4 4 4 4 5 4 4 3 4 3 4 4 4 4 4 4 3 4 3 4 4 4 3 3 4 4 4 4 5 4 5 4 4 5 4 5 5 5 5 5 5 4 4 4 4 4 5 5 4 5 4 5
1 3 6 5 5 6 1 4 3 2 2 2 1 3 3 4 3 4 2 1 1 2 2 3 3 3 4 5 6 7 6 6 5 5 5 5 5 5 4 5 5 5 5 4 5 4 4 5 4 5 6 5 3 3 4 4 4 3 2 3 4 3 2 2 3 3 4 3 4 4 5 4 5 5 5 4 6 3 4 5 4 5 5 5 5 5 5 5 5 5 5 5 6 4 5 6 6
4 3 4 5 3 10 6 1 1 1 3 2 0 6 5 7 4 2 4 4 2 2 2 3 4 4 5 5 6 6 6 6 6 6 6 5 4 4 5 6 5 5 5 6 6 6 6 5 5 5 5 3 3 4 4 3 3 2 4 3 3 3 4 4 5 4 4 3 3 4 4 5 4 4 5 4 5 5 4 4 5 5 5 5 5 6 6 6 5 5 5 6 7 6 5 7 6
7 1 8 2 3 6 5 2 2 3 2 3 1 3 4 3 3 4 4 2 0 1 1 1 2 3 5 5 6 7 8 7 6 5 4 6 6 7 5 5 6 7 7 6 6 5 6 6 6 6 5 5 5 4 4 4 4 4 4 4 4 5 4 5 4 5 3 3 4 4 3 5 5 5 4 4 4 5 5 5 5 6 5 5 6 5 5 6 5 5 6 6 7 5 6 6 6
5 5 6 5 1 1 2 5 0 1 1 1 1 1 4 5 5 2 3 4 5 4 1 3 3 4 6 5 5 4 4 4 5 5 5 5 6 6 6 7 6 6 6 7 7 6 5 4 5 5 7 7 6 4 3 3 3 4 4 4 4 4 4 4 4 3 3 3 5 4 4 5 5 4 4 4 4 5 5 5 5 6 5 6 5 6 5 5 5 6 6 7 6 5 6 7 7
2 3 4 1 3 3 3 4 4 5 1 1 3 2 3 6 6 8 7 7 6 5 4 6 8 9 7 6 6 7 7 7 7 6 6 7 7 7 7 7 7 6 6 6 5 4 6 6 5 5 4 2 2 3 4 4 5 4 4 3 4 4 4 3 3 3 4 4 5 4 5 5 5 4 4 4 4 5 4 5 5 5 6 5 6 6 5 5 5 6 6 6 6 4 6 8 8
1 2 1 1 3 2 4 2 1 1 5 3 2 1 6 8 6 7 9 8 9 10 11 8 8 7 6 6 8 8 8 8 7 7 7 7 7 5 5 5 6 5 4 4 4 6 7 5 5 5 6 5 4 5 4 5 3 4 4 5 6 4 5 3 3 3 3 3 4 3 4 4 4 4 3 4 4 4 4 4 5 5 5 6 6 6 4 4 5 6 6 6 6 5 6 7 6
7 7 5 8 6 3 2 2 1 2 2 3 4 5 8 10 3 8 7 8 8 9 8 8 7 6 6 6 6 8 8 7 7 7 6 7 5 5 4 4 3 4 4 4 4 3 4 4 6 5 4 4 5 5 5 5 4 4 5 5 6 4 3 2 3 4 3 3 3 3 4 3 4 4 3 4 4 4 4 4 4 5 5 5 5 6 5 4 5 6 6 4 5 5 6 7 6
Wind_Direction
105 69 134 129 73 126 64 359 139 308 72 214 11 8 190 5 318 27 344 321 16 331 308 347 0 18 131 155 120 111 46 131 212 133 212 199 71 78 81 81 51 50 37 13 10 27 24 57 65 63 62 62 59 54 51 49 46 43 42 40 39 37 36 33 28 24 27 32 33 35 34 31 29 32 37 35 32 25 24 26 22 15 11 10 19 20 14 34 38 30 36 33 16 44 46 55 70
103 85 64 355 280 60 212 125 95 354 41 62 252 83 263 306 44 346 317 328 209 208 339 322 12 76 85 114 133 143 46 27 347 59 108 87 102 56 41 65 64 57 35 18 19 30 28 35 58 56 60 58 55 53 51 49 45 43 42 41 39 38 36 35 32 28 24 21 24 31 31 35 35 28 33 33 38 25 25 19 20 13 8 3 9 35 360 35 33 30 26 30 32 30 58 59 63
75 79 34 31 10 81 96 43 90 44 108 109 279 213 315 30 121 250 243 273 309 301 294 259 311 18 16 81 48 29 79 351 65 82 70 317 90 350 47 68 67 55 39 19 27 20 10 47 60 59 55 56 54 50 47 43 41 41 40 39 38 38 36 34 31 28 24 18 16 15 23 26 40 30 27 26 26 27 26 27 17 11 5 2 2 3 21 15 32 38 33 22 25 37 43 57 54
89 46 128 58 262 25 65 31 82 126 138 204 323 298 37 219 221 238 304 307 299 315 359 5 36 330 35 60 65 77 63 47 32 62 93 23 64 171 77 61 55 50 40 31 23 17 6 56 60 54 54 53 48 45 41 40 42 40 41 40 38 36 34 30 26 22 20 18 15 11 10 17 26 33 36 28 27 28 24 33 21 11 10 1 359 2 12 17 20 39 33 10 19 34 42 56 43
95 270 141 104 106 3 103 118 136 99 126 195 153 271 275 235 260 302 298 312 306 6 45 28 46 348 67 77 351 71 303 359 12 57 74 28 26 105 85 72 54 54 38 21 19 12 347 70 60 57 58 56 52 43 41 45 47 47 46 44 40 38 32 26 24 21 17 13 13 14 9 359 16 23 39 16 17 2 29 52 25 13 5 11 2 11 354 17 17 18 31 8 32 43 46 41 22
91 31 333 121 263 180 60 73 33 70 207 154 155 238 239 230 208 260 297 311 339 33 99 65 92 321 34 15 9 56 347 19 274 34 117 338 79 91 86 76 66 58 28 20 14 355 342 68 63 60 61 63 53 49 50 54 55 53 48 42 36 30 27 21 17 18 22 20 14 6 6 357 357 13 12 36 39 6 26 50 43 1 2 17 13 359 353 6 9 5 15 30 31 49 49 34 12
265 65 354 21 26 52 150 114 142 162 270 166 206 224 222 256 273 22 330 9 7 31 45 108 88 94 89 16 70 55 29 337 55 306 108 146 96 80 80 72 77 62 34 10 356 357 352 73 62 64 74 68 61 58 60 60 57 51 41 31 20 12 2 23 17 4 6 26 20 10 357 346 343 357 6 14 27 16 29 43 49 3 2 14 22 356 339 12 350 2 25 32 32 40 49 33 20
59 129 301 103 352 52 51 141 129 165 253 170 224 211 274 247 178 105 33 76 324 80 18 59 104 103 16 320 118 352 29 23 322 94 90 85 81 65 67 74 81 56 15 341 358 348 32 72 64 75 78 73 63 60 57 54 50 41 31 20 9 2 356 13 20 13 339 339 4 346 348 344 339 346 358 11 5 8 26 56 76 39 15 4 14 5 351 358 360 5 24 32 30 27 47 43 34
328 92 12 67 56 33 63 56 151 218 261 156 266 231 240 211 191 145 38 101 131 57 356 0 273 108 320 27 34 318 41 359 21 78 71 85 84 65 67 74 105 79 318 331 346 333 342 63 88 96 90 72 62 55 46 40 31 23 16 10 3 355 355 0 17 18 5 352 355 355 305 298 300 333 346 349 2 11 20 31 47 51 29 341 359 7 341 9 358 6 15 27 24 40 43 49 40
2 80 307 108 135 57 31 302 87 218 240 230 195 276 321 331 79 70 137 74 156 129 122 110 327 103 127 70 352 8 329 334 24 62 45 68 79 69 91 125 134 153 225 298 311 335 307 135 119 109 103 81 56 40 34 26 18 13 6 6 3 354 343 12 15 17 13 4 2 348 343 331 289 275 335 328 356 360 13 8 48 66 44 335 340 1 358 355 1 11 9 11 30 52 60 52 42
298 14 136 67 37 83 123 227 262 315 290 345 327 246 256 326 95 84 241 146 265 192 155 165 60 109 105 81 230 231 316 23 98 144 96 88 73 92 185 196 163 176 177 244 262 306 303 323 124 125 117 67 40 28 21 13 8 5 13 12 5 359 12 18 15 12 4 7 1 356 351 336 337 275 296 311 336 349 7 19 43 64 109 182 294 4 354 358 6 26 12 7 31 64 43 54 35
359 2 31 100 97 146 227 152 240 272 305 10 293 220 202 193 40 102 149 120 114 71 319 294 191 140 80 73 330 326 339 35 160 101 113 72 112 211 193 193 149 219 224 217 264 326 341 332 349 77 74 50 28 18 8 7 10 20 20 11 8 5 18 18 9 6 5 8 14 14 17 21 15 12 262 319 337 347 9 25 39 40 57 33 17 7 4 4 11 20 18 8 19 40 39 42 46
110 100 80 93 193 122 168 86 260 275 350 282 180 222 198 122 187 184 159 77 77 96 303 280 131 52 93 136 246 324 17 259 261 167 227 145 210 210 11 175 148 224 237 197 103 339 334 329 345 11 15 31 13 17 12 10 22 28 22 15 14 18 19 15 10 8 7 11 18 24 29 38 29 10 36 309 352 347 342 11 35 31 31 38 28 19 13 8 12 17 14 8 18 28 37 22 31
106 174 121 109 39 139 140 191 29 191 270 245 223 187 212 119 234 165 125 101 265 188 280 197 103 123 75 81 326 275 248 258 242 197 224 211 18 338 273 186 160 223 232 126 48 280 324 337 11 16 17 10 19 10 1 7 23 29 25 23 23 22 19 15 10 11 7 7 13 21 25 33 31 20 11 352 352 340 351 10 12 26 23 29 25 23 23 10 12 12 0 18 18 25 36 35 28
89 139 81 117 44 64 256 126 205 153 249 192 192 146 134 96 119 117 105 105 285 240 48 66 214 80 222 154 212 203 206 214 191 196 174 48 325 312 329 134 259 275 4 46 271 326 316 359 16 12 6 8 19 6 9 1 18 25 25 27 29 24 23 17 11 12 10 3 7 12 20 26 27 21 27 20 0 356 3 9 11 22 21 25 28 9 23 17 9 7 359 9 26 22 25 33 34
138 88 82 104 183 146 246 151 78 103 242 181 219 157 86 9 64 120 242 151 95 35 34 174 351 136 162 156 217 183 188 164 147 120 96 104 73 40 98 77 72 351 17 106 323 326 346 7 10 351 350 3 24 8 13 19 1 28 26 25 27 25 21 18 12 13 10 4 2 6 11 18 13 9 11 9 5 6 359 8 3 11 13 16 23 18 3 5 8 14 5 14 30 37 36 29 22
65 86 62 36 191 158 250 162 144 202 224 243 153 167 102 95 342 78 330 70 89 318 6 340 307 38 156 179 194 139 102 110 107 93 101 93 106 126 43 43 50 325 342 4 302 323 10 16 346 356 353 26 13 12 23 14 4 30 17 14 17 13 14 16 12 9 7 357 2 357 5 5 4 358 358 7 14 10 25 13 25 26 33 35 28 32 34 20 16 16 17 21 35 50 44 32 24
53 64 107 89 199 155 212 184 185 195 127 197 163 201 127 114 169 159 81 62 96 63 43 301 320 17 138 84 94 96 104 109 111 121 137 161 159 168 200 277 161 216 296 291 326 32 47 4 353 5 11 12 5 21 28 21 17 24 15 10 2 5 356 12 7 6 5 360 357 356 358 358 1 354 0 18 18 24 19 29 31 38 36 33 33 31 30 29 26 17 19 26 42 57 55 36 22
92 107 83 242 177 230 165 208 186 134 164 154 156 112 102 128 139 227 89 87 120 88 353 261 74 29 70 77 89 93 99 108 121 140 159 172 180 186 199 230 244 342 270 297 301 42 65 49 52 90 18 353 8 15 39 27 25 19 14 7 3 355 351 357 3 6 5 2 357 353 355 355 3 4 8 27 32 26 23 28 28 31 32 29 26 22 22 21 19 20 22 33 43 59 63 38 25
179 119 260 249 208 227 226 182 192 189 145 135 119 165 91 226 97 28 112 133 93 154 170 148 124 130 114 94 90 94 101 112 128 154 175 189 197 191 192 203 234 242 246 227 226 26 85 105 164 188 42 355 6 16 42 26 16 9 12 4 2 353 346 345 355 8 5 4 356 350 353 355 12 12 15 21 26 14 8 18 19 21 21 22 24 19 13 12 12 10 15 33 41 51 63 49 28
257 76 171 238 187 122 264 188 196 126 139 129 124 140 99 259 132 92 147 94 5 271 230 198 163 150 131 114 107 104 116 129 137 166 181 205 228 210 192 196 200 246 236 237 110 73 49 91 152 54 13 359 18 24 41 15 14 7 3 4 6 358 345 345 350 1 9 3 356 350 351 358 21 23 22 21 22 10 16 18 11 13 10 19 16 20 15 9 14 3 0 20 32 48 58 54 45
113 202 196 171 146 54 278 126 114 111 112 111 128 125 152 159 50 108 129 123 211 199 236 147 144 144 138 135 136 127 144 163 183 178 197 203 210 213 242 264 249 200 265 145 206 46 65 76 342 131 49 342 47 52 37 7 28 10 358 352 9 357 354 344 342 1 3 1 356 349 358 5 18 27 26 24 21 14 20 13 12 7 15 16 12 12 17 18 13 9 6 6 12 54 71 68 60
60 309 239 184 181 129 204 130 124 121 105 122 131 148 102 82 87 86 91 188 241 212 157 114 117 116 116 112 131 149 162 186 199 203 201 220 234 233 218 215 176 189 227 200 219 224 122 22 311 61 76 357 12 36 36 19 11 358 348 353 17 347 352 357 347 352 355 358 1 354 10 356 8 22 21 16 19 3 18 11 13 20 21 14 3 12 17 15 15 9 10 4 351 39 63 68 70
111 327 34 174 200 120 144 113 121 92 113 140 151 104 88 119 105 174 58 293 251 116 112 108 107 105 114 130 160 171 188 193 214 217 206 209 206 207 200 199 209 185 163 194 206 170 143 215 224 76 201 48 348 13 26 19 350 9 2 360 358 337 8 353 343 343 342 5 356 357 4 9 12 15 11 11 352 1 12 357 9 36 27 15 353 19 16 12 15 14 15 12 8 9 47 56 64
146 351 64 90 65 50 67 93 86 91 82 130 101 95 143 134 144 92 27 179 128 115 106 109 116 119 130 152 177 182 199 225 236 237 245 239 217 221 182 158 163 154 174 200 196 139 196 203 138 199 89 32 333 356 22 358 351 6 15 360 351 349 350 342 336 340 359 348 355 12 4 11 9 21 20 357 345 9 355 0 12 31 31 15 3 22 21 9 17 10 19 17 5 13 33 40 57
183 120 102 90 91 72 94 65 68 98 93 107 87 107 166 161 111 50 275 212 154 122 111 128 132 141 169 187 190 182 197 206 217 226 226 216 176 171 212 182 167 176 195 178 157 177 195 208 182 206 163 187 354 10 13 12 359 5 2 353 332 352 337 332 354 356 348 11 1 3 358 25 22 14 18 1 12 357 356 355 8 19 24 10 16 20 0 13 9 13 22 26 13 10 29 24 42
154 61 75 108 121 104 31 105 8 265 97 133 116 127 152 229 92 299 266 210 152 120 131 136 146 171 195 202 207 204 193 208 206 203 98 145 178 191 203 175 188 191 151 164 176 171 180 171 228 222 299 199 69 11 352 5 351 4 2 339 353 351 326 340 7 344 353 15 359 352 8 358 32 22 24 15 10 2 358 1 6 2 21 6 4 12 358 16 8 21 21 24 19 12 22 26 37
98 110 83 53 54 60 96 70 185 81 61 117 127 137 167 324 78 187 180 189 161 142 157 165 171 193 203 219 222 213 222 235 225 160 183 172 197 195 182 186 197 169 167 181 179 151 155 195 233 264 236 285 114 357 346 360 2 328 1 1 355 336 345 348 348 3 359 353 1 356 350 3 11 37 29 14 22 7 4 2 0 14 5 354 1 5 8 12 25 9 13 25 30 27 24 26 29
155 124 73 27 65 70 103 132 229 95 17 170 151 76 16 352 144 193 165 157 153 154 169 181 197 215 226 235 238 225 224 241 198 207 207 202 193 176 190 205 175 177 206 157 161 144 177 192 201 239 219 288 148 273 5 278 291 341 4 9 338 343 348 340 331 2 331 330 348 358 343 1 38 27 24 26 17 18 12 12 9 4 357 348 356 7 17 16 29 18 18 4 37 25 28 16 7
72 40 122 35 17 46 195 65 92 75 221 161 49 38 287 301 243 182 155 147 133 147 187 196 210 225 235 237 238 249 253 253 225 222 212 216 202 188 196 201 188 171 165 137 127 168 175 181 172 155 179 210 253 192 290 335 334 342 12 30 345 340 346 331 307 355 293 332 339 350 352 356 47 13 30 17 25 21 19 22 11 3 353 352 2 19 27 19 23 23 7 16 31 36 31 11 6
93 270 59 81 63 271 296 136 189 112 193 182 68 131 279 268 275 191 168 156 156 181 199 206 219 233 243 247 245 244 257 228 234 237 224 208 211 201 192 161 154 140 123 139 166 178 163 176 155 128 189 225 314 347 354 317 339 10 359 354 11 336 324 317 301 346 345 331 340 342 354 354 39 30 28 33 27 28 23 18 17 356 346 1 24 20 31 28 27 26 12 19 24 34 30 24 14
27 57 317 331 107 267 304 239 149 149 358 10 71 70 228 256 262 196 176 161 160 188 207 219 226 237 249 258 254 252 255 264 257 247 215 213 189 198 177 179 159 159 170 167 156 142 172 197 130 145 176 209 257 264 288 295 322 342 356 341 25 351 331 326 335 9 338 325 343 347 343 347 16 38 25 29 37 23 29 28 7 354 3 15 26 22 33 28 4 29 24 28 34 24 21 15 15
5 94 251 312 45 264 341 219 197 145 111 11 127 212 334 293 239 204 179 168 176 189 213 223 228 237 244 246 252 255 271 279 283 253 225 202 211 181 177 165 181 180 160 154 158 155 173 209 143 161 182 211 241 272 323 357 6 357 349 342 336 12 6 344 347 15 11 357 348 354 335 343 359 48 28 35 46 26 24 27 4 4 3 29 30 26 41 24 27 24 25 28 54 53 29 9 15
326 31 120 215 115 325 283 309 201 149 115 223 50 120 235 236 305 199 181 181 176 199 219 222 225 227 228 233 238 247 245 258 257 250 240 198 203 185 166 173 180 166 174 165 165 162 177 188 181 192 220 206 221 322 10 11 345 337 343 342 341 13 357 357 4 22 11 336 338 341 337 8 1 30 44 26 49 42 45 34 11 12 6 19 33 32 29 28 41 38 35 16 28 46 34 19 4
218 319 18 319 342 169 208 158 241 123 97 160 154 293 276 276 303 246 196 185 184 211 210 215 218 223 228 225 228 231 241 243 249 240 238 212 179 176 160 152 149 157 166 163 151 147 143 176 183 235 186 222 271 52 17 22 354 350 351 5 355 9 4 6 53 32 337 328 328 324 8 20 359 355 48 30 35 34 32 23 27 8 15 13 30 28 21 16 31 35 53 29 23 54 57 37 5
176 165 171 150 146 209 209 233 240 157 144 157 167 208 253 274 274 257 221 192 197 220 225 239 236 230 232 232 233 226 228 243 243 235 220 202 181 167 155 135 134 148 148 147 140 132 141 144 145 287 260 214 108 72 47 18 31 28 352 347 2 350 348 340 18 60 330 342 339 3 24 56 356 344 25 36 46 39 38 21 19 18 20 29 31 25 13 13 9 21 27 28 33 45 44 16 16
104 103 111 183 199 288 272 256 217 157 100 213 199 225 259 270 246 231 210 184 224 238 235 232 234 234 233 237 237 236 229 236 216 206 202 188 179 164 139 126 124 113 121 141 145 157 168 177 164 219 238 121 147 117 40 51 14 345 13 11 292 281 295 329 357 29 3 333 344 7 20 8 8 350 19 41 38 34 39 19 29 20 15 31 39 30 9 10 9 9 13 23 34 34 22 6 6
129 123 133 240 191 236 244 203 158 174 153 248 174 211 256 255 275 253 192 177 227 223 226 233 234 232 239 236 246 240 240 294 142 164 196 154 151 145 131 130 135 131 162 144 172 190 184 172 182 212 223 174 180 164 162 163 190 171 174 259 278 286 340 13 339 348 26 324 342 9 20 2 346 12 1 63 47 41 25 25 33 14 19 17 34 33 33 26 23 28 13 39 26 48 34 2 355
65 171 161 143 262 229 295 22 150 175 135 285 158 194 248 263 259 217 189 204 224 217 210 219 211 223 232 236 240 246 254 249 219 219 178 180 163 156 144 149 172 173 164 177 186 159 173 192 211 213 222 207 211 168 142 225 220 192 150 290 151 311 242 243 257 267 295 296 316 327 32 350 342 341 3 32 74 31 43 27 31 5 41 23 34 24 21 29 24 24 24 57 10 18 39 19 22
119 87 81 228 231 126 261 340 127 165 159 227 177 199 276 299 285 255 220 201 232 223 226 244 205 217 220 224 221 223 231 234 225 206 197 182 169 157 134 156 179 151 148 155 155 182 193 214 215 207 224 230 228 222 210 183 113 141 172 134 74 144 282 324 301 286 340 51 349 316 335 83 311 305 331 3 68 74 19 29 351 40 42 54 62 46 23 23 22 23 24 26 64 38 6 5 26
296 149 162 214 186 224 148 194 126 28 17 92 88 51 320 324 223 282 282 254 263 246 234 238 237 228 235 263 264 223 223 212 211 199 190 160 157 176 180 168 142 166 173 182 180 184 193 206 209 200 205 209 228 237 224 126 95 69 20 7 31 3 352 2 12 344 339 308 29 2 318 347 305 274 318 4 45 66 41 77 25 33 29 54 60 53 41 23 23 43 30 41 38 79 25 354 4
320 230 200 198 164 142 62 119 119 125 259 276 136 29 301 285 282 244 275 359 231 232 220 243 224 216 196 223 238 242 253 196 192 206 188 180 179 176 114 135 163 180 194 204 191 192 187 204 203 212 219 219 223 241 189 144 155 148 44 30 354 4 342 342 344 328 326 331 327 312 313 324 332 303 275 301 1 76 54 45 7 16 1 31 59 73 56 31 19 24 33 68 49 39 104 39 8
102 268 192 196 145 134 129 138 97 135 185 282 101 156 262 324 288 264 291 206 236 296 235 243 223 203 204 220 229 220 218 211 176 135 144 161 182 146 164 185 187 187 221 183 179 191 198 193 199 195 198 213 217 199 164 141 113 114 182 193 192 235 263 276 241 253 261 289 309 324 295 316 332 334 315 253 286 348 100 52 26 358 331 342 17 41 24 14 340 343 43 63 59 60 60 56 35
219 242 161 153 122 141 166 160 145 192 259 341 53 107 157 318 289 287 287 222 259 273 258 251 239 201 209 218 219 214 211 197 186 179 174 187 176 177 188 203 186 206 186 161 177 172 186 193 186 196 200 204 204 155 166 169 162 163 151 183 185 219 206 258 290 300 270 300 319 310 221 284 317 339 330 345 229 267 163 131 45 329 341 295 342 4 347 334 347 21 69 97 86 60 80 84 54
213 307 115 120 144 151 153 145 129 118 97 293 325 340 39 264 265 321 64 172 266 258 245 242 238 216 207 217 216 214 208 196 179 172 182 187 190 202 200 200 211 169 164 180 186 190 187 186 187 175 188 204 189 180 171 201 176 175 186 180 268 260 228 259 289 307 322 327 322 315 339 319 323 324 347 344 274 228 243 211 203 263 282 277 299 322 4 354 9 336 343 6 23 52 74 135 86
263 107 84 90 77 68 114 106 87 352 67 269 237 162 159 287 278 333 350 292 277 247 234 230 226 213 203 212 221 216 196 168 185 192 185 198 201 204 204 197 164 201 190 182 163 150 158 158 170 172 211 212 197 187 183 184 196 155 172 197 231 282 290 305 328 304 331 338 339 307 318 321 331 338 337 338 344 253 239 222 196 229 244 264 280 285 301 321 302 304 292 301 339 56 121 154 116
134 86 81 54 54 57 39 68 96 65 1 258 231 183 130 302 265 202 135 218 203 236 297 270 230 216 210 219 214 208 194 184 187 189 192 220 229 183 140 194 209 162 176 168 162 165 159 168 171 179 217 198 187 194 175 204 189 188 205 207 215 253 281 310 337 331 340 355 332 307 312 306 312 306 318 318 287 292 246 225 214 229 236 245 266 269 265 257 271 269 292 308 308 333 18 112 105
103 80 115 76 7 14 32 351 41 100 272 267 280 171 123 148 290 277 240 262 209 174 214 207 205 215 207 205 207 205 194 187 175 167 196 190 165 161 152 202 191 187 155 172 172 157 170 172 167 200 240 227 218 195 191 219 196 214 222 209 224 233 245 267 266 270 291 294 298 301 311 322 314 315 307 304 301 287 246 255 251 230 235 243 250 238 248 238 249 245 275 283 286 270 250 220 164
83 91 74 100 235 35 276 12 148 225 205 292 65 131 67 252 229 237 266 235 233 217 200 197 195 210 208 204 203 195 187 176 171 181 172 175 188 183 188 197 163 171 194 188 184 178 174 170 178 188 234 234 225 195 205 215 201 221 216 218 235 242 235 229 241 258 254 258 274 293 318 312 318 331 311 322 279 260 242 247 254 245 249 239 243 239 247 238 241 236 248 254 267 268 255 243 273
122 127 122 93 82 44 230 282 270 309 289 255 201 308 274 243 289 241 254 264 228 221 218 196 186 198 201 201 190 184 184 183 183 177 180 185 191 193 193 183 185 190 197 187 181 177 181 180 181 188 230 227 221 199 214 207 220 227 213 214 229 225 237 224 240 235 264 242 232 262 256 258 280 261 276 270 263 260 237 238 244 249 245 251 245 242 250 248 231 234 235 239 244 245 247 236 247
186 77 147 173 144 154 205 198 196 212 205 293 280 106 232 87 241 229 254 267 247 214 247 242 218 213 193 139 146 158 173 187 177 181 185 190 195 187 185 185 187 190 190 181 182 182 170 177 180 203 235 252 218 221 202 218 235 232 224 220 226 209 233 236 243 229 251 266 256 248 263 250 247 269 253 270 265 239 244 245 241 248 253 248 248 252 253 253 245 246 243 244 256 248 240 247 252
1 150 86 93 217 142 95 211 143 185 143 41 182 208 184 184 255 290 305 325 51 151 158 139 167 118 126 140 165 183 183 183 182 184 187 195 194 187 177 183 189 188 188 180 185 175 177 195 193 204 211 228 219 224 224 217 231 232 222 222 229 217 243 240 256 249 246 224 248 226 257 249 244 263 275 275 280 255 251 246 244 244 248 250 246 246 252 251 247 242 254 252 261 237 237 241 248
232 109 204 208 143 101 98 56 24 105 53 195 171 318 303 297 316 359 1 57 24 75 112 150 157 138 139 171 179 182 184 180 183 186 187 183 177 192 189 184 185 187 181 187 190 187 193 190 191 210 228 235 228 223 228 223 234 240 255 243 248 246 238 243 250 263 262 252 235 242 246 257 262 254 269 269 280 283 272 261 261 260 252 243 247 244 243 244 241 241 249 250 253 252 240 247 248
90 168 231 156 125 120 127 170 342 62 156 252 22 236 297 27 272 325 23 57 332 106 155 152 133 139 177 193 184 185 189 188 183 180 174 181 184 182 186 195 186 184 190 194 199 197 201 193 193 204 215 224 240 226 227 221 218 228 250 252 247 233 237 245 244 256 273 286 274 258 258 270 256 251 243 263 261 278 284 278 268 273 267 260 251 253 241 244 238 244 247 251 249 252 253 257 245
149 200 169 113 237 238 330 95 33 111 256 283 315 307 266 183 243 341 274 207 209 205 183 135 177 198 207 196 196 183 159 153 166 171 172 183 188 184 182 194 198 193 194 196 200 196 201 209 208 203 212 215 223 217 225 226 206 222 226 238 242 251 240 249 254 259 271 266 272 269 259 261 283 281 270 274 274 271 274 277 273 281 285 278 274 265 258 255 239 254 251 255 257 242 249 262 256
54 88 74 340 104 154 125 200 168 117 195 71 290 30 241 212 213 194 221 214 196 183 180 211 207 205 197 190 183 177 179 184 179 178 183 188 193 188 182 188 193 201 203 211 206 194 207 213 206 215 232 244 249 240 223 225 223 217 243 257 259 244 252 245 254 250 263 253 268 298 309 318 303 320 314 298 290 291 291 291 277 267 276 270 267 266 260 262 260 252 260 263 266 245 254 261 272
23 33 327 12 31 211 100 43 69 169 166 176 166 315 274 261 214 180 212 200 196 184 196 204 214 213 202 193 180 183 187 183 184 180 182 188 193 196 196 197 195 196 205 204 197 197 212 209 215 220 218 229 230 234 213 230 213 225 234 248 256 256 262 262 269 255 275 326 346 316 284 259 292 297 289 288 277 272 276 278 294 296 294 298 291 289 257 246 246 259 256 252 266 246 248 261 261
162 159 197 169 120 124 119 244 42 71 96 199 129 234 270 271 182 205 200 207 198 212 191 190 213 208 192 191 193 187 186 194 183 184 179 183 190 197 202 202 201 185 203 204 213 209 224 212 219 219 229 240 232 237 217 224 216 220 225 243 253 259 269 331 339 6 357 297 274 270 261 276 282 291 284 292 301 310 319 323 324 326 320 310 308 299 304 276 268 271 275 257 258 246 246 258 261